SL-12 DEB, 44560

Orbit data source: Space-Track

SL-12 DEB, 44560 is space debris in HEO originally from a launch on Thu, 02 Sep 2010 UTC launched from the Tyuratam Missile And Space Complex (TTMTR). Debris objects in space refer to the collection of defunct objects orbiting the Earth. Examples of debris include non-operational satellites, rocket bodies, and fragments generated from explosions, collisions, or faulty payload assembly.

Loading next visibility...
Identifier
44560, 2010-041AF
Orbit
HEO
Last TLE update
1 day ago
Origin
Manufacturer
RKKE
Mission
Spacecraft
Bus & Motor
Unknown
Mass
Unknown
Launch date (UTC)
2010-09-02 (15 years ago)
Launch vehicle
Unknown
Launch site
Tyuratam Missile And Space Complex (TTMTR)
Object type
Payload
Rocket body
Debris
Shape & HBR
Unknown
Radar Cross Section
Medium (>0.1 m² and <1 m²)

Expand to show TLE details & history

TLE from 1 day ago
0 SL-12 DEB
1 44560U 10041AF  25181.43312750  .00000373  00000-0  11921-2 0  9996
2 44560  65.2707 168.3395 5459771 287.7921  21.7689  4.57221921 94590
Epoch: 2025-06-30T10:23Z
TLE epoch observation values (Epoch: 2025-06-30T10:23:42.216Z)
Latitude
0.00001°
Longitude
93.67312°
Altitude
2,854.197 km
Speed
7.77 km/s
True Right ascension
11h 13m 22s
True Declination
0° 00' 00"
Sunlit
Object was in daylight at epoch
Visualization orbit readout
Latitude
46.37163°
Longitude
-115.57257°
Altitude
15,808.809 km
Speed
3.155 km/s
Apparent Right ascension
20h 53m 12s
Apparent Declination
48° 29' 29"
Sunlit
Object is in daylight
Visualization observer readout
Local Sidereal Time
22:06:48
Azimuth
309.238° NW
Elevation
74.33°
Doppler factor
1
Orbital elements
Apogee altitude
17,325.825 km
Perigee altitude
583.248 km
Semi-major axis
15,332.674 km
Eccentricity
0.54598
Inclination
65.2707°
RAAN
168.3395°
Arg. of periapsis
287.7921°
True anomaly
Unknown
Mean anomaly
21.7689°
Eccentric anomaly
Unknown
Mean motion
1.14318 °/min
Orbital period
314.91 mins
BSTAR
0.0011921
Loading maneuver chart data...
Loading SW <> Apogee altitude chart data...
Loading historical data...
Loading historical data...
Loading historical data...
Loading historical data...
Loading historical data...
Loading historical data...
Loading historical data...

SL-12 DEB Visibility forecast

Observer location: undefined°, undefined°

Span
Click to sort rows by Start time (UTC) header in descending order
Start Az.
Max El. time (UTC)
Max El. Az.
Max El.
End time (UTC)
End Az.
78 mins2025-07-01 10:28:21.342Z309.13° NW2025-07-01 10:46:21.342Z267.674° W44.423°2025-07-01 11:46:21.342Z180.49° SSW
66 mins2025-07-01 14:37:21.342Z332.981° NNW2025-07-01 15:10:21.342Z321.972° NNW12.47°2025-07-01 15:43:21.342Z309.429° NW
151 mins2025-07-01 23:10:21.342Z167.765° S2025-07-01 23:32:21.342Z92.425° ESE41.292°2025-07-02 01:41:21.342Z36.807° NE
236 mins2025-07-02 04:42:21.342Z281.312° WNW2025-07-02 07:01:21.342Z40.066° NE40.663°2025-07-02 08:38:21.342Z123.791° SE
|